TEVEL2-4

Last updated on Sun Jun 21 2026 00:03:20 GMT+0000 (Coordinated Universal Time)

1 63213U 25052D 26171.44236345 .00016057 00000+0 47906-3 0 9994 2 63213 97.3895 67.8392 0004959 96.9497 263.2310 15.34707854 70619
UTC large
Height (km)
Speed (km/s)
/
Latitude / Longitude
Inclination (degrees)
Orbital Period (minutes)
Azimuth
Elevation
Range (km)
Doppler Factor

Next 0 passes for location: London (51.5072 / 0.1276)

No passes found over London.
TEVEL2-4